Wetterdaten: Mittwoch, 18.11.2015
Datum Zeit Temp. A. Feuchte A. Luftdruck Regen Wind Richtung Richtung Sonnenschein ET UV Solar Taupunkt Windchill Windben Empfang
18.11.2015 00:00 11,6 C 81 % 1014,8 hPa 0,0 l/m 0,8 km/h (0 Bft) W-SW 250 0 min 0,000 mm 0,0 UV-I 0 W/m 8,5 C 11,6 C 3,2 km/h (1 Bft) 100,00 %
18.11.2015 00:05 11,8 C 80 % 1014,7 hPa 0,0 l/m 1,2 km/h (1 Bft) W 263 0 min 0,000 mm 0,0 UV-I 0 W/m 8,5 C 11,8 C 3,2 km/h (1 Bft) 100,00 %
18.11.2015 00:10 11,8 C 80 % 1014,8 hPa 0,0 l/m 0,8 km/h (0 Bft) W 263 0 min 0,000 mm 0,0 UV-I 0 W/m 8,5 C 11,8 C 3,2 km/h (1 Bft) 99,19 %
18.11.2015 00:15 11,7 C 81 % 1014,8 hPa 0,0 l/m 0,4 km/h (0 Bft) W 263 0 min 0,000 mm 0,0 UV-I 0 W/m 8,5 C 11,7 C 3,2 km/h (1 Bft) 99,08 %
18.11.2015 00:20 11,4 C 82 % 1014,6 hPa 0,0 l/m 1,8 km/h (1 Bft) S 182 0 min 0,000 mm 0,0 UV-I 0 W/m 8,4 C 11,4 C 3,2 km/h (1 Bft) 99,22 %
18.11.2015 00:25 11,4 C 82 % 1014,4 hPa 0,0 l/m 2,3 km/h (1 Bft) S 171 0 min 0,000 mm 0,0 UV-I 0 W/m 8,4 C 11,4 C 6,4 km/h (2 Bft) 100,00 %
18.11.2015 00:30 11,6 C 81 % 1014,2 hPa 0,0 l/m 3,7 km/h (1 Bft) S 191 0 min 0,000 mm 0,0 UV-I 0 W/m 8,5 C 11,6 C 8,0 km/h (2 Bft) 100,00 %
18.11.2015 00:35 11,6 C 81 % 1014,2 hPa 0,0 l/m 3,4 km/h (1 Bft) S 184 0 min 0,000 mm 0,0 UV-I 0 W/m 8,5 C 11,6 C 6,4 km/h (2 Bft) 99,10 %
18.11.2015 00:40 11,5 C 81 % 1014,2 hPa 0,0 l/m 3,2 km/h (1 Bft) S-SW 200 0 min 0,000 mm 0,0 UV-I 0 W/m 8,4 C 11,5 C 4,8 km/h (1 Bft) 99,11 %
18.11.2015 00:45 11,4 C 81 % 1014,1 hPa 0,0 l/m 2,7 km/h (1 Bft) S-SW 192 0 min 0,000 mm 0,0 UV-I 0 W/m 8,3 C 11,4 C 4,8 km/h (1 Bft) 99,17 %
18.11.2015 00:50 11,4 C 81 % 1014,0 hPa 0,0 l/m 3,5 km/h (1 Bft) S 176 0 min 0,000 mm 0,0 UV-I 0 W/m 8,3 C 11,4 C 8,0 km/h (2 Bft) 100,00 %
18.11.2015 00:55 11,6 C 81 % 1014,0 hPa 0,0 l/m 3,7 km/h (1 Bft) S-SW 200 0 min 0,000 mm 0,0 UV-I 0 W/m 8,5 C 11,6 C 9,7 km/h (2 Bft) 98,17 %
18.11.2015 01:00 11,5 C 81 % 1014,0 hPa 0,0 l/m 2,9 km/h (1 Bft) SW 217 0 min 0,000 mm 0,0 UV-I 0 W/m 8,4 C 11,5 C 4,8 km/h (1 Bft) 100,00 %
18.11.2015 01:05 11,4 C 82 % 1014,0 hPa 0,0 l/m 2,3 km/h (1 Bft) S 186 0 min 0,000 mm 0,0 UV-I 0 W/m 8,4 C 11,4 C 4,8 km/h (1 Bft) 99,08 %
18.11.2015 01:10 11,4 C 81 % 1013,8 hPa 0,0 l/m 3,6 km/h (1 Bft) S-SW 193 0 min 0,000 mm 0,0 UV-I 0 W/m 8,3 C 11,4 C 6,4 km/h (2 Bft) 99,17 %
18.11.2015 01:15 11,6 C 81 % 1013,7 hPa 0,0 l/m 3,4 km/h (1 Bft) S 190 0 min 0,000 mm 0,0 UV-I 0 W/m 8,5 C 11,6 C 8,0 km/h (2 Bft) 99,12 %
18.11.2015 01:20 11,9 C 79 % 1013,4 hPa 0,0 l/m 4,9 km/h (1 Bft) S-SO 159 0 min 0,000 mm 0,0 UV-I 0 W/m 8,4 C 11,9 C 9,7 km/h (2 Bft) 99,19 %
18.11.2015 01:25 12,2 C 78 % 1013,3 hPa 0,0 l/m 6,9 km/h (2 Bft) S-SW 211 0 min 0,000 mm 0,0 UV-I 0 W/m 8,5 C 11,9 C 11,3 km/h (2 Bft) 98,17 %
18.11.2015 01:30 12,3 C 77 % 1013,1 hPa 0,0 l/m 5,2 km/h (1 Bft) S 185 0 min 0,000 mm 0,0 UV-I 0 W/m 8,4 C 12,3 C 9,7 km/h (2 Bft) 99,12 %
18.11.2015 01:35 12,4 C 76 % 1013,1 hPa 0,0 l/m 5,9 km/h (2 Bft) S-SW 198 0 min 0,000 mm 0,0 UV-I 0 W/m 8,3 C 12,4 C 9,7 km/h (2 Bft) 100,00 %
18.11.2015 01:40 12,7 C 75 % 1013,1 hPa 0,0 l/m 5,9 km/h (2 Bft) S-SW 211 0 min 0,000 mm 0,0 UV-I 0 W/m 8,4 C 12,7 C 11,3 km/h (2 Bft) 99,11 %
18.11.2015 01:45 12,6 C 76 % 1013,1 hPa 0,0 l/m 4,2 km/h (1 Bft) S-SW 192 0 min 0,000 mm 0,0 UV-I 0 W/m 8,5 C 12,6 C 8,0 km/h (2 Bft) 96,83 %
18.11.2015 01:50 12,5 C 76 % 1013,0 hPa 0,0 l/m 3,9 km/h (1 Bft) S 188 0 min 0,000 mm 0,0 UV-I 0 W/m 8,4 C 12,5 C 8,0 km/h (2 Bft) 98,17 %
18.11.2015 01:55 12,6 C 75 % 1013,0 hPa 0,0 l/m 4,7 km/h (1 Bft) SW 215 0 min 0,000 mm 0,0 UV-I 0 W/m 8,3 C 12,6 C 9,7 km/h (2 Bft) 100,00 %
18.11.2015 02:00 12,8 C 73 % 1013,1 hPa 0,0 l/m 5,0 km/h (1 Bft) SW 223 0 min 0,025 mm 0,0 UV-I 0 W/m 8,1 C 12,8 C 8,0 km/h (2 Bft) 100,00 %
18.11.2015 02:05 12,9 C 73 % 1013,1 hPa 0,0 l/m 3,1 km/h (1 Bft) W 263 0 min 0,000 mm 0,0 UV-I 0 W/m 8,2 C 12,9 C 6,4 km/h (2 Bft) 99,15 %
18.11.2015 02:10 12,8 C 73 % 1013,1 hPa 0,0 l/m 2,5 km/h (1 Bft) W-SW 250 0 min 0,000 mm 0,0 UV-I 0 W/m 8,1 C 12,8 C 4,8 km/h (1 Bft) 100,00 %
18.11.2015 02:15 12,6 C 75 % 1013,1 hPa 0,0 l/m 1,8 km/h (1 Bft) NW 315 0 min 0,000 mm 0,0 UV-I 0 W/m 8,3 C 12,6 C 4,8 km/h (1 Bft) 99,15 %
18.11.2015 02:20 12,4 C 76 % 1013,1 hPa 0,0 l/m 0,0 km/h (0 Bft) NW 315 0 min 0,000 mm 0,0 UV-I 0 W/m 8,3 C 12,4 C 1,6 km/h (1 Bft) 99,17 %
18.11.2015 02:25 12,2 C 77 % 1013,2 hPa 0,0 l/m 0,6 km/h (0 Bft) NW 317 0 min 0,000 mm 0,0 UV-I 0 W/m 8,3 C 12,2 C 3,2 km/h (1 Bft) 100,00 %
18.11.2015 02:30 12,2 C 76 % 1013,0 hPa 0,0 l/m 1,0 km/h (0 Bft) W 271 0 min 0,000 mm 0,0 UV-I 0 W/m 8,1 C 12,2 C 3,2 km/h (1 Bft) 100,00 %
18.11.2015 02:35 12,3 C 76 % 1013,0 hPa 0,0 l/m 1,7 km/h (1 Bft) W-SW 242 0 min 0,000 mm 0,0 UV-I 0 W/m 8,2 C 12,3 C 4,8 km/h (1 Bft) 100,00 %
18.11.2015 02:40 12,3 C 77 % 1012,8 hPa 0,0 l/m 1,8 km/h (1 Bft) W-SW 239 0 min 0,000 mm 0,0 UV-I 0 W/m 8,4 C 12,3 C 4,8 km/h (1 Bft) 100,00 %
18.11.2015 02:45 12,2 C 76 % 1012,8 hPa 0,0 l/m 2,9 km/h (1 Bft) SW 232 0 min 0,000 mm 0,0 UV-I 0 W/m 8,1 C 12,2 C 6,4 km/h (2 Bft) 100,00 %
18.11.2015 02:50 12,3 C 75 % 1012,8 hPa 0,0 l/m 3,5 km/h (1 Bft) SW 228 0 min 0,000 mm 0,0 UV-I 0 W/m 8,0 C 12,3 C 8,0 km/h (2 Bft) 100,00 %
18.11.2015 02:55 12,3 C 76 % 1012,9 hPa 0,0 l/m 3,9 km/h (1 Bft) W-SW 258 0 min 0,000 mm 0,0 UV-I 0 W/m 8,2 C 12,3 C 9,7 km/h (2 Bft) 99,19 %
18.11.2015 03:00 12,3 C 76 % 1013,1 hPa 0,0 l/m 3,9 km/h (1 Bft) W-NW 290 0 min 0,000 mm 0,0 UV-I 0 W/m 8,2 C 12,3 C 9,7 km/h (2 Bft) 100,00 %
18.11.2015 03:05 12,3 C 77 % 1013,3 hPa 0,0 l/m 4,1 km/h (1 Bft) W-NW 300 0 min 0,000 mm 0,0 UV-I 0 W/m 8,4 C 12,3 C 8,0 km/h (2 Bft) 97,56 %
18.11.2015 03:10 12,4 C 77 % 1013,2 hPa 0,0 l/m 5,5 km/h (1 Bft) W-NW 284 0 min 0,000 mm 0,0 UV-I 0 W/m 8,5 C 12,4 C 12,9 km/h (3 Bft) 99,17 %
18.11.2015 03:15 12,6 C 76 % 1013,1 hPa 0,0 l/m 5,9 km/h (2 Bft) W-NW 292 0 min 0,000 mm 0,0 UV-I 0 W/m 8,5 C 12,6 C 14,5 km/h (3 Bft) 99,12 %
18.11.2015 03:20 12,7 C 75 % 1012,8 hPa 0,0 l/m 4,3 km/h (1 Bft) W-NW 285 0 min 0,000 mm 0,0 UV-I 0 W/m 8,4 C 12,7 C 12,9 km/h (3 Bft) 97,25 %
18.11.2015 03:25 13,1 C 74 % 1012,7 hPa 0,0 l/m 5,7 km/h (1 Bft) W-NW 289 0 min 0,000 mm 0,0 UV-I 0 W/m 8,6 C 13,1 C 12,9 km/h (3 Bft) 100,00 %
18.11.2015 03:30 13,2 C 73 % 1012,8 hPa 0,0 l/m 4,9 km/h (1 Bft) SW 229 0 min 0,000 mm 0,0 UV-I 0 W/m 8,5 C 13,2 C 12,9 km/h (3 Bft) 99,12 %
18.11.2015 03:35 13,3 C 73 % 1012,8 hPa 0,0 l/m 4,6 km/h (1 Bft) SW 234 0 min 0,000 mm 0,0 UV-I 0 W/m 8,6 C 13,3 C 11,3 km/h (2 Bft) 99,17 %
18.11.2015 03:40 13,5 C 72 % 1012,7 hPa 0,0 l/m 5,2 km/h (1 Bft) W 259 0 min 0,000 mm 0,0 UV-I 0 W/m 8,6 C 13,5 C 11,3 km/h (2 Bft) 98,21 %
18.11.2015 03:45 13,6 C 72 % 1012,6 hPa 0,0 l/m 4,7 km/h (1 Bft) W-SW 248 0 min 0,000 mm 0,0 UV-I 0 W/m 8,6 C 13,6 C 9,7 km/h (2 Bft) 100,00 %
18.11.2015 03:50 13,7 C 72 % 1012,6 hPa 0,0 l/m 5,2 km/h (1 Bft) W 279 0 min 0,000 mm 0,0 UV-I 0 W/m 8,7 C 13,7 C 9,7 km/h (2 Bft) 100,00 %
18.11.2015 03:55 13,9 C 71 % 1012,5 hPa 0,0 l/m 5,6 km/h (1 Bft) W 268 0 min 0,000 mm 0,0 UV-I 0 W/m 8,7 C 13,9 C 11,3 km/h (2 Bft) 100,00 %
18.11.2015 04:00 14,2 C 70 % 1012,5 hPa 0,0 l/m 6,6 km/h (2 Bft) W 281 0 min 0,026 mm 0,0 UV-I 0 W/m 8,8 C 14,1 C 12,9 km/h (3 Bft) 100,00 %
18.11.2015 04:05 14,2 C 70 % 1012,6 hPa 0,0 l/m 5,9 km/h (2 Bft) W-SW 243 0 min 0,000 mm 0,0 UV-I 0 W/m 8,8 C 14,2 C 16,1 km/h (3 Bft) 99,04 %
18.11.2015 04:10 14,0 C 70 % 1012,5 hPa 0,0 l/m 5,9 km/h (2 Bft) W-SW 239 0 min 0,000 mm 0,0 UV-I 0 W/m 8,6 C 14,0 C 11,3 km/h (2 Bft) 100,00 %
18.11.2015 04:15 13,9 C 70 % 1012,6 hPa 0,0 l/m 5,3 km/h (1 Bft) W-SW 246 0 min 0,000 mm 0,0 UV-I 0 W/m 8,5 C 13,9 C 9,7 km/h (2 Bft) 100,00 %
18.11.2015 04:20 13,7 C 70 % 1012,6 hPa 0,0 l/m 5,2 km/h (1 Bft) W 273 0 min 0,000 mm 0,0 UV-I 0 W/m 8,3 C 13,7 C 11,3 km/h (2 Bft) 99,11 %
18.11.2015 04:25 13,9 C 70 % 1012,6 hPa 0,0 l/m 7,6 km/h (2 Bft) W 272 0 min 0,000 mm 0,0 UV-I 0 W/m 8,5 C 13,2 C 12,9 km/h (3 Bft) 99,15 %
18.11.2015 04:30 14,1 C 69 % 1012,6 hPa 0,0 l/m 5,8 km/h (2 Bft) W 261 0 min 0,000 mm 0,0 UV-I 0 W/m 8,5 C 14,1 C 14,5 km/h (3 Bft) 99,17 %
18.11.2015 04:35 14,4 C 68 % 1012,5 hPa 0,0 l/m 7,6 km/h (2 Bft) W-SW 241 0 min 0,000 mm 0,0 UV-I 0 W/m 8,6 C 13,7 C 14,5 km/h (3 Bft) 100,00 %
18.11.2015 04:40 14,5 C 68 % 1012,4 hPa 0,0 l/m 5,4 km/h (1 Bft) W 271 0 min 0,000 mm 0,0 UV-I 0 W/m 8,7 C 14,5 C 11,3 km/h (2 Bft) 100,00 %
18.11.2015 04:45 14,4 C 68 % 1012,5 hPa 0,0 l/m 6,5 km/h (2 Bft) W 277 0 min 0,000 mm 0,0 UV-I 0 W/m 8,6 C 14,4 C 12,9 km/h (3 Bft) 99,23 %
18.11.2015 04:50 14,6 C 67 % 1012,5 hPa 0,0 l/m 7,8 km/h (2 Bft) W 263 0 min 0,000 mm 0,0 UV-I 0 W/m 8,5 C 13,8 C 16,1 km/h (3 Bft) 98,25 %
18.11.2015 04:55 14,5 C 67 % 1012,7 hPa 0,0 l/m 6,6 km/h (2 Bft) W 268 0 min 0,000 mm 0,0 UV-I 0 W/m 8,4 C 14,4 C 12,9 km/h (3 Bft) 100,00 %
18.11.2015 05:00 14,4 C 67 % 1012,6 hPa 0,0 l/m 8,0 km/h (2 Bft) W 259 0 min 0,000 mm 0,0 UV-I 0 W/m 8,4 C 13,5 C 17,7 km/h (3 Bft) 99,11 %
18.11.2015 05:05 14,7 C 66 % 1012,5 hPa 0,0 l/m 9,2 km/h (2 Bft) W 268 0 min 0,025 mm 0,0 UV-I 0 W/m 8,4 C 13,2 C 16,1 km/h (3 Bft) 98,45 %
18.11.2015 05:10 15,0 C 66 % 1012,7 hPa 0,0 l/m 11,1 km/h (2 Bft) W 268 0 min 0,000 mm 0,0 UV-I 0 W/m 8,7 C 12,6 C 27,4 km/h (4 Bft) 100,00 %
18.11.2015 05:15 15,3 C 66 % 1012,7 hPa 0,0 l/m 12,0 km/h (2 Bft) W-NW 302 0 min 0,000 mm 0,0 UV-I 0 W/m 9,0 C 12,6 C 27,4 km/h (4 Bft) 99,13 %
18.11.2015 05:20 15,3 C 66 % 1012,8 hPa 0,0 l/m 10,6 km/h (2 Bft) W 263 0 min 0,000 mm 0,0 UV-I 0 W/m 9,0 C 13,2 C 17,7 km/h (3 Bft) 99,21 %
18.11.2015 05:25 15,4 C 66 % 1012,8 hPa 0,0 l/m 11,1 km/h (2 Bft) W 265 0 min 0,000 mm 0,0 UV-I 0 W/m 9,1 C 13,1 C 20,9 km/h (4 Bft) 100,00 %
18.11.2015 05:30 15,4 C 66 % 1012,8 hPa 0,0 l/m 10,7 km/h (2 Bft) W 261 0 min 0,000 mm 0,0 UV-I 0 W/m 9,1 C 13,3 C 22,5 km/h (4 Bft) 98,37 %
18.11.2015 05:35 15,4 C 66 % 1012,8 hPa 0,0 l/m 8,9 km/h (2 Bft) W-SW 248 0 min 0,000 mm 0,0 UV-I 0 W/m 9,1 C 14,1 C 16,1 km/h (3 Bft) 100,00 %
18.11.2015 05:40 15,4 C 67 % 1013,1 hPa 0,0 l/m 10,9 km/h (2 Bft) W 272 0 min 0,000 mm 0,0 UV-I 0 W/m 9,3 C 13,2 C 25,7 km/h (4 Bft) 99,21 %
18.11.2015 05:45 15,4 C 66 % 1013,1 hPa 0,0 l/m 12,9 km/h (3 Bft) W-SW 240 0 min 0,000 mm 0,0 UV-I 0 W/m 9,1 C 12,4 C 25,7 km/h (4 Bft) 99,11 %
18.11.2015 05:50 15,6 C 66 % 1013,1 hPa 0,0 l/m 12,4 km/h (3 Bft) W-SW 252 0 min 0,000 mm 0,0 UV-I 0 W/m 9,3 C 12,8 C 32,2 km/h (5 Bft) 99,17 %
18.11.2015 05:55 15,5 C 66 % 1013,2 hPa 0,0 l/m 14,6 km/h (3 Bft) SW 236 0 min 0,000 mm 0,0 UV-I 0 W/m 9,2 C 11,9 C 25,7 km/h (4 Bft) 99,12 %
18.11.2015 06:00 15,6 C 67 % 1013,2 hPa 0,0 l/m 14,6 km/h (3 Bft) W-NW 283 0 min 0,051 mm 0,0 UV-I 0 W/m 9,5 C 12,0 C 25,7 km/h (4 Bft) 100,00 %
18.11.2015 06:05 15,6 C 67 % 1013,3 hPa 0,0 l/m 14,6 km/h (3 Bft) W-NW 300 0 min 0,000 mm 0,0 UV-I 0 W/m 9,5 C 12,0 C 32,2 km/h (5 Bft) 99,13 %
18.11.2015 06:10 15,5 C 67 % 1013,2 hPa 0,0 l/m 14,9 km/h (3 Bft) W 269 0 min 0,000 mm 0,0 UV-I 0 W/m 9,4 C 11,8 C 24,1 km/h (4 Bft) 100,00 %
18.11.2015 06:15 15,6 C 67 % 1013,2 hPa 0,0 l/m 15,5 km/h (3 Bft) W-SW 254 0 min 0,000 mm 0,0 UV-I 0 W/m 9,5 C 11,8 C 27,4 km/h (4 Bft) 100,00 %
18.11.2015 06:20 15,6 C 66 % 1013,1 hPa 0,0 l/m 16,1 km/h (3 Bft) W 280 0 min 0,000 mm 0,0 UV-I 0 W/m 9,3 C 11,6 C 32,2 km/h (5 Bft) 98,35 %
18.11.2015 06:25 15,7 C 66 % 1013,1 hPa 0,0 l/m 16,1 km/h (3 Bft) W 259 0 min 0,000 mm 0,0 UV-I 0 W/m 9,4 C 11,7 C 32,2 km/h (5 Bft) 98,29 %
18.11.2015 06:30 15,9 C 66 % 1013,1 hPa 0,0 l/m 19,2 km/h (3 Bft) W 281 0 min 0,000 mm 0,0 UV-I 0 W/m 9,6 C 11,1 C 37,0 km/h (5 Bft) 100,00 %
18.11.2015 06:35 16,0 C 65 % 1013,4 hPa 0,0 l/m 18,8 km/h (3 Bft) W 275 0 min 0,000 mm 0,0 UV-I 0 W/m 9,4 C 11,3 C 32,2 km/h (5 Bft) 100,00 %
18.11.2015 06:40 16,1 C 65 % 1013,2 hPa 0,0 l/m 19,4 km/h (3 Bft) SW 225 0 min 0,000 mm 0,0 UV-I 0 W/m 9,5 C 11,3 C 32,2 km/h (5 Bft) 100,00 %
18.11.2015 06:45 16,1 C 65 % 1013,4 hPa 0,0 l/m 17,7 km/h (3 Bft) W 263 0 min 0,000 mm 0,0 UV-I 0 W/m 9,5 C 11,7 C 32,2 km/h (5 Bft) 100,00 %
18.11.2015 06:50 15,9 C 66 % 1013,5 hPa 0,0 l/m 16,7 km/h (3 Bft) W-SW 254 0 min 0,000 mm 0,0 UV-I 0 W/m 9,6 C 11,8 C 35,4 km/h (5 Bft) 100,00 %
18.11.2015 06:55 15,8 C 66 % 1013,5 hPa 0,0 l/m 16,4 km/h (3 Bft) W 259 0 min 0,000 mm 0,0 UV-I 0 W/m 9,5 C 11,7 C 33,8 km/h (5 Bft) 99,19 %
18.11.2015 07:00 15,8 C 66 % 1013,5 hPa 0,0 l/m 17,1 km/h (3 Bft) W-SW 244 0 min 0,076 mm 0,0 UV-I 0 W/m 9,5 C 11,5 C 33,8 km/h (5 Bft) 99,11 %
18.11.2015 07:05 15,6 C 67 % 1013,4 hPa 0,0 l/m 14,5 km/h (3 Bft) W-SW 258 0 min 0,000 mm 0,0 UV-I 0 W/m 9,5 C 12,1 C 32,2 km/h (5 Bft) 100,00 %
18.11.2015 07:10 15,6 C 66 % 1013,6 hPa 0,0 l/m 17,2 km/h (3 Bft) W-NW 284 0 min 0,000 mm 0,0 UV-I 0 W/m 9,3 C 11,3 C 33,8 km/h (5 Bft) 98,26 %
18.11.2015 07:15 15,4 C 67 % 1013,6 hPa 0,0 l/m 12,3 km/h (3 Bft) W 274 0 min 0,000 mm 0,0 UV-I 0 W/m 9,3 C 12,6 C 25,7 km/h (4 Bft) 99,13 %
18.11.2015 07:20 15,3 C 67 % 1013,7 hPa 0,0 l/m 14,6 km/h (3 Bft) W 275 0 min 0,000 mm 0,0 UV-I 3 W/m 9,2 C 11,7 C 29,0 km/h (5 Bft) 99,22 %
18.11.2015 07:25 15,3 C 67 % 1013,8 hPa 0,0 l/m 13,8 km/h (3 Bft) W-NW 285 0 min 0,000 mm 0,0 UV-I 5 W/m 9,2 C 12,0 C 25,7 km/h (4 Bft) 100,00 %
18.11.2015 07:30 15,3 C 67 % 1013,8 hPa 0,0 l/m 14,6 km/h (3 Bft) W 268 0 min 0,000 mm 0,0 UV-I 7 W/m 9,2 C 11,7 C 24,1 km/h (4 Bft) 99,12 %
18.11.2015 07:35 15,3 C 67 % 1014,0 hPa 0,0 l/m 13,7 km/h (3 Bft) W-SW 254 0 min 0,000 mm 0,0 UV-I 10 W/m 9,2 C 12,0 C 29,0 km/h (5 Bft) 100,00 %
18.11.2015 07:40 15,3 C 67 % 1014,2 hPa 0,0 l/m 12,6 km/h (3 Bft) W-SW 256 0 min 0,000 mm 0,0 UV-I 12 W/m 9,2 C 12,4 C 25,7 km/h (4 Bft) 100,00 %
18.11.2015 07:45 15,2 C 68 % 1014,3 hPa 0,0 l/m 12,0 km/h (2 Bft) W 265 0 min 0,000 mm 0,0 UV-I 14 W/m 9,3 C 12,5 C 24,1 km/h (4 Bft) 100,00 %
18.11.2015 07:50 15,3 C 68 % 1014,3 hPa 0,0 l/m 13,6 km/h (3 Bft) W-NW 284 0 min 0,000 mm 0,0 UV-I 19 W/m 9,4 C 12,0 C 29,0 km/h (5 Bft) 99,13 %
18.11.2015 07:55 15,3 C 67 % 1014,5 hPa 0,0 l/m 14,4 km/h (3 Bft) W-SW 242 0 min 0,000 mm 0,0 UV-I 29 W/m 9,2 C 11,8 C 30,6 km/h (5 Bft) 100,00 %
18.11.2015 08:00 15,3 C 67 % 1014,6 hPa 0,0 l/m 11,8 km/h (2 Bft) W 276 0 min 0,076 mm 0,0 UV-I 38 W/m 9,2 C 12,7 C 24,1 km/h (4 Bft) 100,00 %
18.11.2015 08:05 15,3 C 67 % 1014,7 hPa 0,0 l/m 13,4 km/h (3 Bft) W 277 0 min 0,000 mm 0,0 UV-I 46 W/m 9,2 C 12,1 C 22,5 km/h (4 Bft) 100,00 %
18.11.2015 08:10 15,3 C 67 % 1014,8 hPa 0,0 l/m 11,3 km/h (2 Bft) W-NW 296 0 min 0,000 mm 0,0 UV-I 55 W/m 9,2 C 12,9 C 22,5 km/h (4 Bft) 100,00 %
18.11.2015 08:15 15,3 C 67 % 1014,9 hPa 0,0 l/m 12,7 km/h (3 Bft) W-SW 241 0 min 0,000 mm 0,0 UV-I 64 W/m 9,2 C 12,4 C 25,7 km/h (4 Bft) 99,35 %
18.11.2015 08:20 15,4 C 67 % 1015,0 hPa 0,0 l/m 12,6 km/h (3 Bft) W 261 0 min 0,000 mm 0,0 UV-I 74 W/m 9,3 C 12,5 C 20,9 km/h (4 Bft) 98,21 %
18.11.2015 08:25 15,4 C 67 % 1014,8 hPa 0,0 l/m 12,0 km/h (2 Bft) W 263 5 min 0,000 mm 0,0 UV-I 86 W/m 9,3 C 12,7 C 22,5 km/h (4 Bft) 98,37 %
18.11.2015 08:30 15,4 C 67 % 1014,8 hPa 0,0 l/m 11,6 km/h (2 Bft) W 273 5 min 0,000 mm 0,0 UV-I 96 W/m 9,3 C 12,9 C 24,1 km/h (4 Bft) 100,00 %
18.11.2015 08:35 15,6 C 67 % 1014,9 hPa 0,0 l/m 11,0 km/h (2 Bft) W-NW 287 5 min 0,000 mm 0,0 UV-I 108 W/m 9,5 C 13,4 C 24,1 km/h (4 Bft) 100,00 %
18.11.2015 08:40 15,6 C 66 % 1014,9 hPa 0,0 l/m 11,8 km/h (2 Bft) W-NW 284 5 min 0,000 mm 0,0 UV-I 119 W/m 9,3 C 13,0 C 24,1 km/h (4 Bft) 99,19 %
18.11.2015 08:45 15,6 C 67 % 1014,9 hPa 0,0 l/m 11,1 km/h (2 Bft) NW 304 5 min 0,000 mm 0,0 UV-I 131 W/m 9,5 C 13,3 C 19,3 km/h (3 Bft) 100,00 %
18.11.2015 08:50 15,6 C 67 % 1014,9 hPa 0,0 l/m 12,5 km/h (3 Bft) W-SW 249 5 min 0,000 mm 0,0 UV-I 143 W/m 9,5 C 12,8 C 22,5 km/h (4 Bft) 98,37 %
18.11.2015 08:55 15,7 C 66 % 1014,9 hPa 0,0 l/m 11,4 km/h (2 Bft) W 281 5 min 0,000 mm 0,0 UV-I 155 W/m 9,4 C 13,3 C 20,9 km/h (4 Bft) 99,11 %
18.11.2015 09:00 15,8 C 66 % 1015,1 hPa 0,0 l/m 13,5 km/h (3 Bft) W 259 5 min 0,102 mm 0,0 UV-I 167 W/m 9,5 C 12,7 C 25,7 km/h (4 Bft) 99,17 %
18.11.2015 09:05 15,8 C 66 % 1015,1 hPa 0,0 l/m 13,0 km/h (3 Bft) W-NW 301 5 min 0,000 mm 0,0 UV-I 178 W/m 9,5 C 12,8 C 25,7 km/h (4 Bft) 98,15 %
18.11.2015 09:10 15,9 C 66 % 1015,2 hPa 0,0 l/m 12,9 km/h (3 Bft) W 270 5 min 0,000 mm 0,0 UV-I 192 W/m 9,6 C 13,0 C 24,1 km/h (4 Bft) 100,00 %
18.11.2015 09:15 15,9 C 66 % 1015,3 hPa 0,0 l/m 11,3 km/h (2 Bft) W 281 5 min 0,000 mm 0,0 UV-I 198 W/m 9,6 C 13,6 C 19,3 km/h (3 Bft) 99,17 %
18.11.2015 09:20 15,9 C 66 % 1015,3 hPa 0,0 l/m 11,3 km/h (2 Bft) W 270 5 min 0,000 mm 0,5 UV-I 213 W/m 9,6 C 13,6 C 17,7 km/h (3 Bft) 100,00 %
18.11.2015 09:25 16,1 C 64 % 1015,5 hPa 0,0 l/m 12,9 km/h (3 Bft) W 270 5 min 0,000 mm 0,5 UV-I 226 W/m 9,3 C 13,2 C 29,0 km/h (5 Bft) 100,00 %
18.11.2015 09:30 16,2 C 64 % 1015,6 hPa 0,0 l/m 14,2 km/h (3 Bft) W 278 5 min 0,000 mm 0,5 UV-I 228 W/m 9,4 C 12,9 C 22,5 km/h (4 Bft) 99,72 %
18.11.2015 09:35 16,2 C 64 % 1015,7 hPa 0,0 l/m 11,6 km/h (2 Bft) W-SW 243 5 min 0,000 mm 0,6 UV-I 254 W/m 9,4 C 13,8 C 22,5 km/h (4 Bft) 99,08 %
18.11.2015 09:40 16,2 C 63 % 1015,7 hPa 0,0 l/m 13,1 km/h (3 Bft) W-NW 296 5 min 0,000 mm 0,6 UV-I 256 W/m 9,1 C 13,3 C 24,1 km/h (4 Bft) 100,00 %
18.11.2015 09:45 16,3 C 63 % 1015,9 hPa 0,0 l/m 14,6 km/h (3 Bft) W 273 5 min 0,000 mm 0,6 UV-I 260 W/m 9,2 C 12,9 C 30,6 km/h (5 Bft) 98,28 %
18.11.2015 09:50 16,3 C 62 % 1015,9 hPa 0,0 l/m 14,5 km/h (3 Bft) W 270 5 min 0,000 mm 0,7 UV-I 274 W/m 9,0 C 12,9 C 29,0 km/h (5 Bft) 100,00 %
18.11.2015 09:55 16,3 C 62 % 1016,3 hPa 0,0 l/m 14,5 km/h (3 Bft) W 270 5 min 0,000 mm 0,7 UV-I 284 W/m 9,0 C 12,9 C 32,2 km/h (5 Bft) 100,00 %
18.11.2015 10:00 16,4 C 62 % 1016,3 hPa 0,0 l/m 14,5 km/h (3 Bft) W 270 5 min 0,178 mm 0,7 UV-I 292 W/m 9,1 C 13,0 C 30,6 km/h (5 Bft) 100,00 %
18.11.2015 10:05 16,4 C 61 % 1016,3 hPa 0,0 l/m 22,1 km/h (4 Bft) W 268 5 min 0,000 mm 0,8 UV-I 298 W/m 8,9 C 11,1 C 37,0 km/h (5 Bft) 96,77 %
18.11.2015 10:10 16,5 C 61 % 1016,4 hPa 0,0 l/m 15,9 km/h (3 Bft) W-NW 303 5 min 0,000 mm 0,8 UV-I 310 W/m 9,0 C 12,7 C 29,0 km/h (5 Bft) 100,00 %
18.11.2015 10:15 16,6 C 59 % 1016,5 hPa 0,0 l/m 18,6 km/h (3 Bft) W 267 5 min 0,000 mm 0,8 UV-I 324 W/m 8,6 C 12,1 C 35,4 km/h (5 Bft) 99,11 %
18.11.2015 10:20 16,7 C 61 % 1016,5 hPa 0,0 l/m 16,1 km/h (3 Bft) W-NW 284 5 min 0,000 mm 0,9 UV-I 352 W/m 9,1 C 12,9 C 33,8 km/h (5 Bft) 97,56 %
18.11.2015 10:25 16,7 C 60 % 1016,4 hPa 0,0 l/m 15,8 km/h (3 Bft) W 271 5 min 0,000 mm 0,9 UV-I 358 W/m 8,9 C 13,0 C 30,6 km/h (5 Bft) 100,00 %
18.11.2015 10:30 16,7 C 59 % 1016,6 hPa 0,0 l/m 16,9 km/h (3 Bft) W-SW 247 5 min 0,000 mm 0,9 UV-I 379 W/m 8,6 C 12,7 C 35,4 km/h (5 Bft) 100,00 %
18.11.2015 10:35 16,7 C 59 % 1016,6 hPa 0,0 l/m 14,3 km/h (3 Bft) W 264 5 min 0,000 mm 0,9 UV-I 380 W/m 8,6 C 13,5 C 30,6 km/h (5 Bft) 100,00 %
18.11.2015 10:40 16,6 C 57 % 1016,8 hPa 0,0 l/m 14,8 km/h (3 Bft) W-SW 251 5 min 0,000 mm 0,9 UV-I 365 W/m 8,0 C 13,2 C 32,2 km/h (5 Bft) 99,19 %
18.11.2015 10:45 16,6 C 56 % 1016,7 hPa 0,0 l/m 18,4 km/h (3 Bft) W-NW 302 5 min 0,000 mm 0,9 UV-I 342 W/m 7,8 C 12,2 C 37,0 km/h (5 Bft) 100,00 %
18.11.2015 10:50 16,5 C 56 % 1016,7 hPa 0,0 l/m 16,8 km/h (3 Bft) W-SW 252 5 min 0,000 mm 0,8 UV-I 350 W/m 7,7 C 12,5 C 33,8 km/h (5 Bft) 99,13 %
18.11.2015 10:55 16,4 C 55 % 1016,8 hPa 0,0 l/m 19,5 km/h (3 Bft) W-SW 237 5 min 0,000 mm 1,1 UV-I 335 W/m 7,3 C 11,7 C 37,0 km/h (5 Bft) 99,17 %
18.11.2015 11:00 16,5 C 54 % 1016,8 hPa 0,0 l/m 19,6 km/h (3 Bft) W-NW 298 5 min 0,254 mm 1,1 UV-I 353 W/m 7,2 C 11,8 C 49,9 km/h (6 Bft) 98,25 %
18.11.2015 11:05 16,6 C 53 % 1016,7 hPa 0,0 l/m 20,2 km/h (4 Bft) W 265 5 min 0,000 mm 1,1 UV-I 355 W/m 7,0 C 11,8 C 38,6 km/h (5 Bft) 98,35 %
18.11.2015 11:10 16,5 C 54 % 1016,8 hPa 0,0 l/m 21,1 km/h (4 Bft) W-SW 257 5 min 0,000 mm 1,1 UV-I 359 W/m 7,2 C 11,4 C 35,4 km/h (5 Bft) 99,11 %
18.11.2015 11:15 16,6 C 54 % 1016,9 hPa 0,0 l/m 19,1 km/h (3 Bft) W-NW 298 5 min 0,000 mm 1,1 UV-I 365 W/m 7,3 C 12,0 C 35,4 km/h (5 Bft) 100,00 %
18.11.2015 11:20 16,6 C 53 % 1016,9 hPa 0,0 l/m 19,9 km/h (4 Bft) W-NW 290 5 min 0,000 mm 1,2 UV-I 363 W/m 7,0 C 11,8 C 33,8 km/h (5 Bft) 100,00 %
18.11.2015 11:25 16,6 C 54 % 1017,0 hPa 0,0 l/m 21,9 km/h (4 Bft) W 265 5 min 0,000 mm 1,2 UV-I 370 W/m 7,3 C 11,4 C 37,0 km/h (5 Bft) 100,00 %
18.11.2015 11:30 16,6 C 53 % 1017,0 hPa 0,0 l/m 20,3 km/h (4 Bft) W-NW 292 5 min 0,000 mm 1,2 UV-I 378 W/m 7,0 C 11,7 C 45,1 km/h (6 Bft) 100,00 %
18.11.2015 11:35 16,6 C 53 % 1016,9 hPa 0,0 l/m 19,5 km/h (3 Bft) NW 306 5 min 0,000 mm 1,2 UV-I 368 W/m 7,0 C 11,9 C 40,2 km/h (6 Bft) 99,16 %
18.11.2015 11:40 16,6 C 55 % 1016,9 hPa 0,0 l/m 14,9 km/h (3 Bft) NW 313 5 min 0,000 mm 1,2 UV-I 372 W/m 7,5 C 13,2 C 32,2 km/h (5 Bft) 99,12 %
18.11.2015 11:45 16,7 C 54 % 1016,9 hPa 0,0 l/m 16,8 km/h (3 Bft) W-SW 253 5 min 0,000 mm 1,2 UV-I 371 W/m 7,3 C 12,7 C 29,0 km/h (5 Bft) 99,20 %
18.11.2015 11:50 16,7 C 54 % 1017,0 hPa 0,0 l/m 16,5 km/h (3 Bft) W 279 5 min 0,000 mm 1,2 UV-I 372 W/m 7,3 C 12,8 C 30,6 km/h (5 Bft) 100,00 %
18.11.2015 11:55 16,7 C 54 % 1016,9 hPa 0,0 l/m 16,9 km/h (3 Bft) W 281 5 min 0,000 mm 1,2 UV-I 372 W/m 7,3 C 12,7 C 32,2 km/h (5 Bft) 99,19 %
18.11.2015 12:00 16,7 C 54 % 1017,1 hPa 0,0 l/m 17,6 km/h (3 Bft) W 269 5 min 0,305 mm 1,2 UV-I 374 W/m 7,3 C 12,5 C 49,9 km/h (6 Bft) 100,00 %
18.11.2015 12:05 16,7 C 54 % 1017,1 hPa 0,0 l/m 16,6 km/h (3 Bft) W 279 5 min 0,000 mm 1,2 UV-I 372 W/m 7,3 C 12,8 C 30,6 km/h (5 Bft) 100,00 %
18.11.2015 12:10 16,7 C 54 % 1017,1 hPa 0,0 l/m 16,2 km/h (3 Bft) W-SW 257 5 min 0,000 mm 1,2 UV-I 372 W/m 7,3 C 12,9 C 32,2 km/h (5 Bft) 100,00 %
18.11.2015 12:15 16,7 C 55 % 1017,0 hPa 0,0 l/m 17,9 km/h (3 Bft) SW 234 5 min 0,000 mm 1,2 UV-I 361 W/m 7,6 C 12,5 C 35,4 km/h (5 Bft) 98,26 %
18.11.2015 12:20 16,7 C 55 % 1016,9 hPa 0,0 l/m 18,4 km/h (3 Bft) W-NW 289 5 min 0,000 mm 1,2 UV-I 372 W/m 7,6 C 12,3 C 29,0 km/h (5 Bft) 98,37 %
18.11.2015 12:25 16,7 C 54 % 1017,1 hPa 0,0 l/m 17,7 km/h (3 Bft) W-NW 286 5 min 0,000 mm 1,0 UV-I 368 W/m 7,3 C 12,5 C 30,6 km/h (5 Bft) 100,00 %
18.11.2015 12:30 16,6 C 54 % 1016,8 hPa 0,0 l/m 21,0 km/h (4 Bft) W-NW 292 5 min 0,000 mm 1,1 UV-I 342 W/m 7,3 C 11,6 C 41,8 km/h (6 Bft) 99,19 %
18.11.2015 12:35 16,6 C 55 % 1016,7 hPa 0,0 l/m 20,1 km/h (4 Bft) SW 217 5 min 0,000 mm 1,1 UV-I 366 W/m 7,5 C 11,8 C 38,6 km/h (5 Bft) 99,10 %
18.11.2015 12:40 16,6 C 55 % 1016,7 hPa 0,0 l/m 20,9 km/h (4 Bft) W-NW 292 5 min 0,000 mm 1,1 UV-I 361 W/m 7,5 C 11,6 C 35,4 km/h (5 Bft) 100,00 %
18.11.2015 12:45 16,7 C 56 % 1016,8 hPa 0,0 l/m 15,8 km/h (3 Bft) W 267 5 min 0,000 mm 1,1 UV-I 358 W/m 7,9 C 13,0 C 35,4 km/h (5 Bft) 100,00 %
18.11.2015 12:50 16,7 C 56 % 1016,9 hPa 0,0 l/m 17,0 km/h (3 Bft) W-SW 257 5 min 0,000 mm 1,0 UV-I 352 W/m 7,9 C 12,7 C 37,0 km/h (5 Bft) 100,00 %
18.11.2015 12:55 16,8 C 55 % 1017,0 hPa 0,0 l/m 15,2 km/h (3 Bft) W-NW 292 5 min 0,000 mm 1,0 UV-I 356 W/m 7,7 C 13,3 C 27,4 km/h (4 Bft) 100,00 %
18.11.2015 13:00 16,7 C 56 % 1016,9 hPa 0,0 l/m 17,1 km/h (3 Bft) NW 309 5 min 0,279 mm 0,8 UV-I 350 W/m 7,9 C 12,7 C 37,0 km/h (5 Bft) 97,50 %
18.11.2015 13:05 16,7 C 56 % 1016,9 hPa 0,0 l/m 14,8 km/h (3 Bft) W 272 5 min 0,000 mm 0,8 UV-I 345 W/m 7,9 C 13,3 C 25,7 km/h (4 Bft) 100,00 %
18.11.2015 13:10 16,7 C 55 % 1017,0 hPa 0,0 l/m 16,3 km/h (3 Bft) W 270 5 min 0,000 mm 0,9 UV-I 340 W/m 7,6 C 12,9 C 25,7 km/h (4 Bft) 100,00 %
18.11.2015 13:15 16,8 C 55 % 1017,0 hPa 0,0 l/m 16,1 km/h (3 Bft) W-NW 292 5 min 0,000 mm 0,9 UV-I 333 W/m 7,7 C 13,1 C 32,2 km/h (5 Bft) 99,12 %
18.11.2015 13:20 16,8 C 55 % 1017,1 hPa 0,0 l/m 15,2 km/h (3 Bft) W 276 5 min 0,000 mm 0,9 UV-I 327 W/m 7,7 C 13,3 C 27,4 km/h (4 Bft) 100,00 %
18.11.2015 13:25 16,8 C 56 % 1017,1 hPa 0,0 l/m 14,7 km/h (3 Bft) SW 235 5 min 0,000 mm 0,9 UV-I 323 W/m 8,0 C 13,5 C 32,2 km/h (5 Bft) 99,11 %
18.11.2015 13:30 16,9 C 55 % 1017,1 hPa 0,0 l/m 15,2 km/h (3 Bft) N-NW 328 5 min 0,000 mm 0,8 UV-I 319 W/m 7,8 C 13,4 C 27,4 km/h (4 Bft) 99,19 %
18.11.2015 13:35 16,9 C 55 % 1017,2 hPa 0,0 l/m 15,4 km/h (3 Bft) SW 229 5 min 0,000 mm 0,8 UV-I 309 W/m 7,8 C 13,4 C 30,6 km/h (5 Bft) 99,15 %
18.11.2015 13:40 16,8 C 55 % 1017,3 hPa 0,0 l/m 15,3 km/h (3 Bft) W 274 5 min 0,000 mm 0,7 UV-I 291 W/m 7,7 C 13,3 C 32,2 km/h (5 Bft) 100,00 %
18.11.2015 13:45 16,9 C 55 % 1017,3 hPa 0,0 l/m 12,4 km/h (3 Bft) W-NW 301 5 min 0,000 mm 0,7 UV-I 293 W/m 7,8 C 14,3 C 24,1 km/h (4 Bft) 99,26 %
18.11.2015 13:50 16,9 C 54 % 1017,4 hPa 0,0 l/m 14,0 km/h (3 Bft) W-SW 245 5 min 0,000 mm 0,7 UV-I 283 W/m 7,5 C 13,8 C 25,7 km/h (4 Bft) 100,00 %
18.11.2015 13:55 16,9 C 55 % 1017,4 hPa 0,0 l/m 10,7 km/h (2 Bft) W 265 5 min 0,000 mm 0,6 UV-I 275 W/m 7,8 C 14,9 C 22,5 km/h (4 Bft) 98,41 %
18.11.2015 14:00 16,9 C 55 % 1017,4 hPa 0,0 l/m 11,8 km/h (2 Bft) SW 235 5 min 0,254 mm 0,6 UV-I 267 W/m 7,8 C 14,5 C 24,1 km/h (4 Bft) 99,11 %
18.11.2015 14:05 16,9 C 55 % 1017,2 hPa 0,0 l/m 12,4 km/h (3 Bft) W-NW 291 5 min 0,000 mm 0,6 UV-I 257 W/m 7,8 C 14,3 C 22,5 km/h (4 Bft) 97,32 %
18.11.2015 14:10 16,9 C 55 % 1017,3 hPa 0,0 l/m 11,2 km/h (2 Bft) W-NW 284 5 min 0,000 mm 0,5 UV-I 249 W/m 7,8 C 14,8 C 19,3 km/h (3 Bft) 100,00 %
18.11.2015 14:15 16,9 C 55 % 1017,3 hPa 0,0 l/m 10,5 km/h (2 Bft) W 281 5 min 0,000 mm 0,5 UV-I 237 W/m 7,8 C 15,0 C 24,1 km/h (4 Bft) 100,00 %
18.11.2015 14:20 16,9 C 54 % 1017,3 hPa 0,0 l/m 13,0 km/h (3 Bft) W-SW 253 5 min 0,000 mm 0,5 UV-I 227 W/m 7,5 C 14,1 C 24,1 km/h (4 Bft) 100,00 %
18.11.2015 14:25 16,9 C 54 % 1017,3 hPa 0,0 l/m 12,5 km/h (3 Bft) W 268 5 min 0,000 mm 0,2 UV-I 217 W/m 7,5 C 14,3 C 30,6 km/h (5 Bft) 100,00 %
18.11.2015 14:30 16,9 C 54 % 1017,2 hPa 0,0 l/m 11,1 km/h (2 Bft) SW 234 5 min 0,000 mm 0,0 UV-I 205 W/m 7,5 C 14,8 C 19,3 km/h (3 Bft) 99,21 %
18.11.2015 14:35 16,8 C 55 % 1017,1 hPa 0,0 l/m 10,4 km/h (2 Bft) N-NW 335 5 min 0,000 mm 0,0 UV-I 195 W/m 7,7 C 14,9 C 19,3 km/h (3 Bft) 100,00 %
18.11.2015 14:40 16,8 C 55 % 1017,2 hPa 0,0 l/m 7,7 km/h (2 Bft) W 269 5 min 0,000 mm 0,0 UV-I 183 W/m 7,7 C 16,1 C 14,5 km/h (3 Bft) 99,19 %
18.11.2015 14:45 16,8 C 54 % 1017,3 hPa 0,0 l/m 10,4 km/h (2 Bft) W-NW 288 5 min 0,000 mm 0,0 UV-I 171 W/m 7,4 C 14,9 C 25,7 km/h (4 Bft) 100,00 %
18.11.2015 14:50 16,8 C 53 % 1017,2 hPa 0,0 l/m 11,6 km/h (2 Bft) SW 225 5 min 0,000 mm 0,0 UV-I 159 W/m 7,2 C 14,5 C 22,5 km/h (4 Bft) 99,12 %
18.11.2015 14:55 16,8 C 53 % 1017,3 hPa 0,0 l/m 12,0 km/h (2 Bft) W 275 5 min 0,000 mm 0,0 UV-I 147 W/m 7,2 C 14,3 C 20,9 km/h (4 Bft) 100,00 %
18.11.2015 15:00 16,7 C 53 % 1017,2 hPa 0,0 l/m 10,0 km/h (2 Bft) W 275 5 min 0,178 mm 0,0 UV-I 135 W/m 7,1 C 15,0 C 22,5 km/h (4 Bft) 100,00 %
18.11.2015 15:05 16,7 C 53 % 1017,3 hPa 0,0 l/m 10,1 km/h (2 Bft) W 273 5 min 0,000 mm 0,0 UV-I 124 W/m 7,1 C 15,0 C 19,3 km/h (3 Bft) 100,00 %
18.11.2015 15:10 16,6 C 53 % 1017,3 hPa 0,0 l/m 11,6 km/h (2 Bft) W-NW 292 5 min 0,000 mm 0,0 UV-I 112 W/m 7,0 C 14,3 C 25,7 km/h (4 Bft) 100,00 %
18.11.2015 15:15 16,6 C 53 % 1017,4 hPa 0,0 l/m 11,8 km/h (2 Bft) W-NW 288 5 min 0,000 mm 0,0 UV-I 100 W/m 7,0 C 14,2 C 20,9 km/h (4 Bft) 99,12 %
18.11.2015 15:20 16,5 C 53 % 1017,4 hPa 0,0 l/m 13,8 km/h (3 Bft) W 273 5 min 0,000 mm 0,0 UV-I 90 W/m 6,9 C 13,4 C 22,5 km/h (4 Bft) 100,00 %
18.11.2015 15:25 16,4 C 53 % 1017,4 hPa 0,0 l/m 11,6 km/h (2 Bft) W 259 5 min 0,000 mm 0,0 UV-I 80 W/m 6,8 C 14,0 C 27,4 km/h (4 Bft) 97,25 %
18.11.2015 15:30 16,3 C 53 % 1017,4 hPa 0,0 l/m 10,9 km/h (2 Bft) W 278 5 min 0,000 mm 0,0 UV-I 69 W/m 6,7 C 14,2 C 20,9 km/h (4 Bft) 100,00 %
18.11.2015 15:35 16,2 C 54 % 1017,5 hPa 0,0 l/m 11,5 km/h (2 Bft) W 277 5 min 0,000 mm 0,0 UV-I 59 W/m 6,9 C 13,8 C 20,9 km/h (4 Bft) 99,19 %
18.11.2015 15:40 16,1 C 55 % 1017,5 hPa 0,0 l/m 9,7 km/h (2 Bft) W 261 0 min 0,000 mm 0,0 UV-I 49 W/m 7,1 C 14,5 C 16,1 km/h (3 Bft) 100,00 %
18.11.2015 15:45 16,0 C 54 % 1017,5 hPa 0,0 l/m 10,7 km/h (2 Bft) NW 306 0 min 0,000 mm 0,0 UV-I 40 W/m 6,7 C 13,9 C 22,5 km/h (4 Bft) 99,11 %
18.11.2015 15:50 15,9 C 54 % 1017,5 hPa 0,0 l/m 10,7 km/h (2 Bft) W 261 0 min 0,000 mm 0,0 UV-I 30 W/m 6,6 C 13,8 C 19,3 km/h (3 Bft) 99,13 %
18.11.2015 15:55 15,9 C 54 % 1017,5 hPa 0,0 l/m 12,8 km/h (3 Bft) W 271 0 min 0,000 mm 0,0 UV-I 22 W/m 6,6 C 13,0 C 22,5 km/h (4 Bft) 99,19 %
18.11.2015 16:00 15,7 C 54 % 1017,5 hPa 0,0 l/m 10,6 km/h (2 Bft) W 273 0 min 0,101 mm 0,0 UV-I 17 W/m 6,4 C 13,6 C 19,3 km/h (3 Bft) 100,00 %
18.11.2015 16:05 15,5 C 55 % 1017,4 hPa 0,0 l/m 8,3 km/h (2 Bft) W 277 0 min 0,000 mm 0,0 UV-I 13 W/m 6,5 C 14,5 C 16,1 km/h (3 Bft) 99,17 %
18.11.2015 16:10 15,3 C 56 % 1017,2 hPa 0,0 l/m 7,3 km/h (2 Bft) W-SW 255 5 min 0,000 mm 0,0 UV-I 12 W/m 6,6 C 14,8 C 14,5 km/h (3 Bft) 100,00 %
18.11.2015 16:15 15,2 C 57 % 1017,2 hPa 0,0 l/m 8,4 km/h (2 Bft) W 273 0 min 0,000 mm 0,0 UV-I 10 W/m 6,7 C 14,1 C 16,1 km/h (3 Bft) 100,00 %
18.11.2015 16:20 14,9 C 57 % 1017,3 hPa 0,0 l/m 8,6 km/h (2 Bft) W 271 0 min 0,000 mm 0,0 UV-I 8 W/m 6,5 C 13,7 C 12,9 km/h (3 Bft) 100,00 %
18.11.2015 16:25 14,8 C 57 % 1017,3 hPa 0,0 l/m 9,2 km/h (2 Bft) W-NW 282 0 min 0,000 mm 0,0 UV-I 6 W/m 6,4 C 13,3 C 16,1 km/h (3 Bft) 99,15 %
18.11.2015 16:30 14,7 C 58 % 1017,2 hPa 0,0 l/m 9,0 km/h (2 Bft) W-NW 289 0 min 0,000 mm 0,0 UV-I 4 W/m 6,5 C 13,3 C 16,1 km/h (3 Bft) 99,21 %
18.11.2015 16:35 14,6 C 58 % 1017,3 hPa 0,0 l/m 8,4 km/h (2 Bft) W-SW 256 0 min 0,000 mm 0,0 UV-I 0 W/m 6,4 C 13,5 C 12,9 km/h (3 Bft) 99,10 %
18.11.2015 16:40 14,4 C 58 % 1017,3 hPa 0,0 l/m 8,8 km/h (2 Bft) W 268 0 min 0,000 mm 0,0 UV-I 0 W/m 6,2 C 13,0 C 16,1 km/h (3 Bft) 98,39 %
18.11.2015 16:45 14,2 C 59 % 1017,3 hPa 0,0 l/m 8,6 km/h (2 Bft) SW 230 0 min 0,000 mm 0,0 UV-I 0 W/m 6,3 C 12,9 C 14,5 km/h (3 Bft) 99,11 %
18.11.2015 16:50 14,2 C 60 % 1017,2 hPa 0,0 l/m 7,5 km/h (2 Bft) W 275 0 min 0,000 mm 0,0 UV-I 0 W/m 6,5 C 13,5 C 14,5 km/h (3 Bft) 99,10 %
18.11.2015 16:55 13,9 C 60 % 1017,3 hPa 0,0 l/m 7,2 km/h (2 Bft) W 264 0 min 0,000 mm 0,0 UV-I 0 W/m 6,3 C 13,4 C 14,5 km/h (3 Bft) 99,19 %
18.11.2015 17:00 13,8 C 60 % 1017,3 hPa 0,0 l/m 8,9 km/h (2 Bft) W-NW 284 0 min 0,051 mm 0,0 UV-I 0 W/m 6,2 C 12,3 C 16,1 km/h (3 Bft) 100,00 %
18.11.2015 17:05 13,9 C 60 % 1017,3 hPa 0,0 l/m 10,5 km/h (2 Bft) W-SW 258 0 min 0,000 mm 0,0 UV-I 0 W/m 6,3 C 11,7 C 17,7 km/h (3 Bft) 99,19 %
18.11.2015 17:10 13,9 C 60 % 1017,3 hPa 0,0 l/m 10,0 km/h (2 Bft) NW 315 0 min 0,000 mm 0,0 UV-I 0 W/m 6,3 C 11,9 C 17,7 km/h (3 Bft) 100,00 %
18.11.2015 17:15 13,8 C 60 % 1017,4 hPa 0,0 l/m 9,6 km/h (2 Bft) W 263 0 min 0,000 mm 0,0 UV-I 0 W/m 6,2 C 12,0 C 14,5 km/h (3 Bft) 99,13 %
18.11.2015 17:20 13,7 C 60 % 1017,4 hPa 0,0 l/m 7,4 km/h (2 Bft) W 267 0 min 0,000 mm 0,0 UV-I 0 W/m 6,1 C 13,1 C 12,9 km/h (3 Bft) 98,04 %
18.11.2015 17:25 13,7 C 60 % 1017,5 hPa 0,0 l/m 8,0 km/h (2 Bft) W-SW 255 0 min 0,000 mm 0,0 UV-I 0 W/m 6,1 C 12,7 C 14,5 km/h (3 Bft) 99,26 %
18.11.2015 17:30 13,6 C 61 % 1017,5 hPa 0,0 l/m 7,6 km/h (2 Bft) W 268 0 min 0,000 mm 0,0 UV-I 0 W/m 6,2 C 12,9 C 12,9 km/h (3 Bft) 99,12 %
18.11.2015 17:35 13,5 C 61 % 1017,6 hPa 0,0 l/m 6,6 km/h (2 Bft) W 273 0 min 0,000 mm 0,0 UV-I 0 W/m 6,1 C 13,4 C 11,3 km/h (2 Bft) 100,00 %
18.11.2015 17:40 13,3 C 62 % 1017,6 hPa 0,0 l/m 6,3 km/h (2 Bft) W-SW 247 0 min 0,000 mm 0,0 UV-I 0 W/m 6,2 C 13,3 C 11,3 km/h (2 Bft) 100,00 %
18.11.2015 17:45 13,2 C 62 % 1017,6 hPa 0,0 l/m 6,7 km/h (2 Bft) W 271 0 min 0,000 mm 0,0 UV-I 0 W/m 6,1 C 13,0 C 11,3 km/h (2 Bft) 100,00 %
18.11.2015 17:50 13,2 C 63 % 1017,6 hPa 0,0 l/m 6,5 km/h (2 Bft) W 279 0 min 0,000 mm 0,0 UV-I 0 W/m 6,3 C 13,2 C 12,9 km/h (3 Bft) 100,00 %
18.11.2015 17:55 13,1 C 63 % 1017,6 hPa 0,0 l/m 7,5 km/h (2 Bft) W 281 0 min 0,000 mm 0,0 UV-I 0 W/m 6,2 C 12,4 C 16,1 km/h (3 Bft) 97,94 %
18.11.2015 18:00 13,1 C 63 % 1017,8 hPa 0,0 l/m 7,3 km/h (2 Bft) SW 223 0 min 0,051 mm 0,0 UV-I 0 W/m 6,2 C 12,5 C 12,9 km/h (3 Bft) 100,00 %
18.11.2015 18:05 12,9 C 63 % 1017,8 hPa 0,0 l/m 7,9 km/h (2 Bft) W 264 0 min 0,000 mm 0,0 UV-I 0 W/m 6,0 C 12,0 C 16,1 km/h (3 Bft) 98,21 %
18.11.2015 18:10 13,0 C 64 % 1017,7 hPa 0,0 l/m 8,5 km/h (2 Bft) W 273 0 min 0,000 mm 0,0 UV-I 0 W/m 6,4 C 11,7 C 19,3 km/h (3 Bft) 100,00 %
18.11.2015 18:15 13,1 C 63 % 1017,8 hPa 0,0 l/m 8,9 km/h (2 Bft) W 264 0 min 0,000 mm 0,0 UV-I 0 W/m 6,2 C 11,6 C 19,3 km/h (3 Bft) 97,58 %
18.11.2015 18:20 13,0 C 64 % 1017,8 hPa 0,0 l/m 7,3 km/h (2 Bft) W-SW 250 0 min 0,000 mm 0,0 UV-I 0 W/m 6,4 C 12,4 C 12,9 km/h (3 Bft) 98,21 %
18.11.2015 18:25 12,7 C 65 % 1018,0 hPa 0,0 l/m 6,0 km/h (2 Bft) W 280 0 min 0,000 mm 0,0 UV-I 0 W/m 6,3 C 12,7 C 12,9 km/h (3 Bft) 97,56 %
18.11.2015 18:30 12,4 C 66 % 1018,0 hPa 0,0 l/m 5,5 km/h (1 Bft) W-NW 283 0 min 0,000 mm 0,0 UV-I 0 W/m 6,2 C 12,4 C 12,9 km/h (3 Bft) 100,00 %
18.11.2015 18:35 12,2 C 67 % 1018,0 hPa 0,0 l/m 6,4 km/h (2 Bft) W-SW 258 0 min 0,000 mm 0,0 UV-I 0 W/m 6,3 C 12,2 C 12,9 km/h (3 Bft) 99,13 %
18.11.2015 18:40 12,2 C 67 % 1018,1 hPa 0,0 l/m 6,5 km/h (2 Bft) W 276 0 min 0,000 mm 0,0 UV-I 0 W/m 6,3 C 12,2 C 14,5 km/h (3 Bft) 98,37 %
18.11.2015 18:45 12,2 C 67 % 1018,2 hPa 0,0 l/m 5,7 km/h (1 Bft) W 281 0 min 0,000 mm 0,0 UV-I 0 W/m 6,3 C 12,2 C 11,3 km/h (2 Bft) 97,25 %
18.11.2015 18:50 12,2 C 67 % 1018,2 hPa 0,0 l/m 5,9 km/h (2 Bft) SW 221 0 min 0,000 mm 0,0 UV-I 0 W/m 6,3 C 12,2 C 12,9 km/h (3 Bft) 99,19 %
18.11.2015 18:55 12,2 C 67 % 1018,3 hPa 0,0 l/m 5,9 km/h (2 Bft) SW 227 0 min 0,000 mm 0,0 UV-I 0 W/m 6,3 C 12,2 C 14,5 km/h (3 Bft) 98,21 %
18.11.2015 19:00 12,3 C 67 % 1018,3 hPa 0,0 l/m 8,5 km/h (2 Bft) SW 227 0 min 0,000 mm 0,0 UV-I 0 W/m 6,4 C 11,0 C 16,1 km/h (3 Bft) 100,00 %
18.11.2015 19:05 12,4 C 67 % 1018,3 hPa 0,0 l/m 9,9 km/h (2 Bft) SW 225 0 min 0,025 mm 0,0 UV-I 0 W/m 6,4 C 10,3 C 19,3 km/h (3 Bft) 100,00 %
18.11.2015 19:10 12,4 C 67 % 1018,4 hPa 0,0 l/m 9,9 km/h (2 Bft) S-SW 211 0 min 0,000 mm 0,0 UV-I 0 W/m 6,4 C 10,3 C 16,1 km/h (3 Bft) 100,00 %
18.11.2015 19:15 12,4 C 67 % 1018,4 hPa 0,0 l/m 8,6 km/h (2 Bft) SW 228 0 min 0,000 mm 0,0 UV-I 0 W/m 6,4 C 11,0 C 14,5 km/h (3 Bft) 98,21 %
18.11.2015 19:20 12,4 C 67 % 1018,5 hPa 0,0 l/m 8,5 km/h (2 Bft) SW 221 0 min 0,000 mm 0,0 UV-I 0 W/m 6,4 C 11,1 C 14,5 km/h (3 Bft) 100,00 %
18.11.2015 19:25 12,3 C 67 % 1018,5 hPa 0,0 l/m 7,7 km/h (2 Bft) S-SW 211 0 min 0,000 mm 0,0 UV-I 0 W/m 6,4 C 11,5 C 14,5 km/h (3 Bft) 97,32 %
18.11.2015 19:30 12,3 C 67 % 1018,4 hPa 0,0 l/m 9,0 km/h (2 Bft) SW 215 0 min 0,000 mm 0,0 UV-I 0 W/m 6,4 C 10,7 C 12,9 km/h (3 Bft) 100,00 %
18.11.2015 19:35 12,4 C 66 % 1018,4 hPa 0,0 l/m 9,0 km/h (2 Bft) S-SW 196 0 min 0,000 mm 0,0 UV-I 0 W/m 6,2 C 10,8 C 17,7 km/h (3 Bft) 99,08 %
18.11.2015 19:40 12,4 C 66 % 1018,4 hPa 0,0 l/m 10,2 km/h (2 Bft) SW 218 0 min 0,000 mm 0,0 UV-I 0 W/m 6,2 C 10,1 C 17,7 km/h (3 Bft) 99,21 %
18.11.2015 19:45 12,4 C 66 % 1018,3 hPa 0,0 l/m 8,9 km/h (2 Bft) W 273 0 min 0,000 mm 0,0 UV-I 0 W/m 6,2 C 10,8 C 17,7 km/h (3 Bft) 100,00 %
18.11.2015 19:50 12,4 C 66 % 1018,3 hPa 0,0 l/m 8,6 km/h (2 Bft) W-SW 240 0 min 0,000 mm 0,0 UV-I 0 W/m 6,2 C 11,0 C 16,1 km/h (3 Bft) 99,17 %
18.11.2015 19:55 12,4 C 66 % 1018,3 hPa 0,0 l/m 7,7 km/h (2 Bft) S-SW 198 0 min 0,000 mm 0,0 UV-I 0 W/m 6,2 C 11,6 C 17,7 km/h (3 Bft) 99,08 %
18.11.2015 20:00 12,3 C 66 % 1018,2 hPa 0,0 l/m 6,8 km/h (2 Bft) W-NW 293 0 min 0,026 mm 0,0 UV-I 0 W/m 6,1 C 12,0 C 14,5 km/h (3 Bft) 100,00 %
18.11.2015 20:05 12,2 C 66 % 1018,2 hPa 0,0 l/m 7,1 km/h (2 Bft) W-SW 257 0 min 0,000 mm 0,0 UV-I 0 W/m 6,0 C 11,7 C 12,9 km/h (3 Bft) 100,00 %
18.11.2015 20:10 12,2 C 67 % 1018,2 hPa 0,0 l/m 6,6 km/h (2 Bft) W-NW 294 0 min 0,000 mm 0,0 UV-I 0 W/m 6,3 C 12,1 C 14,5 km/h (3 Bft) 100,00 %
18.11.2015 20:15 11,9 C 67 % 1018,2 hPa 0,0 l/m 5,3 km/h (1 Bft) W 260 0 min 0,000 mm 0,0 UV-I 0 W/m 6,0 C 11,9 C 11,3 km/h (2 Bft) 100,00 %
18.11.2015 20:20 11,8 C 67 % 1018,1 hPa 0,0 l/m 4,5 km/h (1 Bft) SW 219 0 min 0,000 mm 0,0 UV-I 0 W/m 5,9 C 11,8 C 8,0 km/h (2 Bft) 99,11 %
18.11.2015 20:25 11,7 C 68 % 1018,2 hPa 0,0 l/m 4,7 km/h (1 Bft) SW 229 0 min 0,000 mm 0,0 UV-I 0 W/m 6,0 C 11,7 C 12,9 km/h (3 Bft) 99,12 %
18.11.2015 20:30 11,7 C 68 % 1018,3 hPa 0,0 l/m 4,8 km/h (1 Bft) W 272 0 min 0,000 mm 0,0 UV-I 0 W/m 6,0 C 11,7 C 11,3 km/h (2 Bft) 100,00 %
18.11.2015 20:35 11,6 C 68 % 1018,3 hPa 0,0 l/m 4,2 km/h (1 Bft) W-SW 241 0 min 0,000 mm 0,0 UV-I 0 W/m 5,9 C 11,6 C 9,7 km/h (2 Bft) 98,21 %
18.11.2015 20:40 11,5 C 69 % 1018,2 hPa 0,0 l/m 4,0 km/h (1 Bft) W-SW 246 0 min 0,000 mm 0,0 UV-I 0 W/m 6,0 C 11,5 C 9,7 km/h (2 Bft) 98,33 %
18.11.2015 20:45 11,4 C 69 % 1018,3 hPa 0,0 l/m 5,4 km/h (1 Bft) S-SW 213 0 min 0,000 mm 0,0 UV-I 0 W/m 5,9 C 11,4 C 11,3 km/h (2 Bft) 99,17 %
18.11.2015 20:50 11,4 C 68 % 1018,2 hPa 0,0 l/m 6,2 km/h (2 Bft) W-SW 238 0 min 0,000 mm 0,0 UV-I 0 W/m 5,7 C 11,4 C 9,7 km/h (2 Bft) 100,00 %
18.11.2015 20:55 11,4 C 69 % 1018,2 hPa 0,0 l/m 4,6 km/h (1 Bft) S-SW 208 0 min 0,000 mm 0,0 UV-I 0 W/m 5,9 C 11,4 C 9,7 km/h (2 Bft) 100,00 %
18.11.2015 21:00 11,4 C 68 % 1018,3 hPa 0,0 l/m 5,0 km/h (1 Bft) SW 230 0 min 0,025 mm 0,0 UV-I 0 W/m 5,7 C 11,4 C 9,7 km/h (2 Bft) 99,19 %
18.11.2015 21:05 11,3 C 68 % 1018,3 hPa 0,0 l/m 3,9 km/h (1 Bft) SW 227 0 min 0,000 mm 0,0 UV-I 0 W/m 5,6 C 11,3 C 8,0 km/h (2 Bft) 100,00 %
18.11.2015 21:10 11,2 C 68 % 1018,4 hPa 0,0 l/m 4,8 km/h (1 Bft) SW 216 0 min 0,000 mm 0,0 UV-I 0 W/m 5,5 C 11,2 C 8,0 km/h (2 Bft) 100,00 %
18.11.2015 21:15 11,3 C 68 % 1018,4 hPa 0,0 l/m 4,8 km/h (1 Bft) SW 232 0 min 0,000 mm 0,0 UV-I 0 W/m 5,6 C 11,3 C 11,3 km/h (2 Bft) 100,00 %
18.11.2015 21:20 11,6 C 66 % 1018,3 hPa 0,0 l/m 9,2 km/h (2 Bft) SW 217 0 min 0,000 mm 0,0 UV-I 0 W/m 5,5 C 9,8 C 17,7 km/h (3 Bft) 99,23 %
18.11.2015 21:25 11,5 C 67 % 1018,3 hPa 0,0 l/m 5,8 km/h (2 Bft) W 273 0 min 0,000 mm 0,0 UV-I 0 W/m 5,6 C 11,5 C 12,9 km/h (3 Bft) 100,00 %
18.11.2015 21:30 11,4 C 67 % 1018,3 hPa 0,0 l/m 4,6 km/h (1 Bft) W 279 0 min 0,000 mm 0,0 UV-I 0 W/m 5,5 C 11,4 C 9,7 km/h (2 Bft) 100,00 %
18.11.2015 21:35 11,4 C 67 % 1018,3 hPa 0,0 l/m 4,8 km/h (1 Bft) SW 236 0 min 0,000 mm 0,0 UV-I 0 W/m 5,5 C 11,4 C 12,9 km/h (3 Bft) 99,08 %
18.11.2015 21:40 11,3 C 67 % 1018,4 hPa 0,0 l/m 5,0 km/h (1 Bft) W-SW 240 0 min 0,000 mm 0,0 UV-I 0 W/m 5,4 C 11,3 C 11,3 km/h (2 Bft) 100,00 %
18.11.2015 21:45 11,4 C 67 % 1018,3 hPa 0,0 l/m 5,2 km/h (1 Bft) SW 236 0 min 0,000 mm 0,0 UV-I 0 W/m 5,5 C 11,4 C 11,3 km/h (2 Bft) 100,00 %
18.11.2015 21:50 11,4 C 67 % 1018,3 hPa 0,0 l/m 6,6 km/h (2 Bft) SW 227 0 min 0,000 mm 0,0 UV-I 0 W/m 5,5 C 11,3 C 16,1 km/h (3 Bft) 100,00 %
18.11.2015 21:55 11,4 C 67 % 1018,3 hPa 0,0 l/m 6,1 km/h (2 Bft) SW 223 0 min 0,000 mm 0,0 UV-I 0 W/m 5,5 C 11,4 C 9,7 km/h (2 Bft) 99,11 %
18.11.2015 22:00 11,4 C 67 % 1018,3 hPa 0,0 l/m 8,7 km/h (2 Bft) SW 221 0 min 0,026 mm 0,0 UV-I 0 W/m 5,5 C 9,9 C 19,3 km/h (3 Bft) 98,20 %
18.11.2015 22:05 11,3 C 67 % 1018,2 hPa 0,0 l/m 8,0 km/h (2 Bft) S-SW 194 0 min 0,000 mm 0,0 UV-I 0 W/m 5,4 C 10,2 C 12,9 km/h (3 Bft) 100,00 %
18.11.2015 22:10 11,2 C 68 % 1018,2 hPa 0,0 l/m 7,4 km/h (2 Bft) SW 225 0 min 0,000 mm 0,0 UV-I 0 W/m 5,5 C 10,5 C 12,9 km/h (3 Bft) 100,00 %
18.11.2015 22:15 11,0 C 68 % 1018,2 hPa 0,0 l/m 5,7 km/h (1 Bft) SW 225 0 min 0,000 mm 0,0 UV-I 0 W/m 5,3 C 11,0 C 12,9 km/h (3 Bft) 100,00 %
18.11.2015 22:20 11,1 C 68 % 1018,1 hPa 0,0 l/m 7,7 km/h (2 Bft) SW 223 0 min 0,000 mm 0,0 UV-I 0 W/m 5,4 C 10,2 C 12,9 km/h (3 Bft) 100,00 %
18.11.2015 22:25 11,1 C 68 % 1018,2 hPa 0,0 l/m 6,9 km/h (2 Bft) SW 235 0 min 0,000 mm 0,0 UV-I 0 W/m 5,4 C 10,8 C 11,3 km/h (2 Bft) 97,56 %
18.11.2015 22:30 10,9 C 68 % 1018,2 hPa 0,0 l/m 7,3 km/h (2 Bft) SW 221 0 min 0,000 mm 0,0 UV-I 0 W/m 5,2 C 10,3 C 16,1 km/h (3 Bft) 99,11 %
18.11.2015 22:35 10,9 C 68 % 1018,1 hPa 0,0 l/m 6,1 km/h (2 Bft) S-SW 213 0 min 0,000 mm 0,0 UV-I 0 W/m 5,2 C 10,9 C 14,5 km/h (3 Bft) 99,11 %
18.11.2015 22:40 10,9 C 69 % 1018,2 hPa 0,0 l/m 5,6 km/h (1 Bft) SW 224 0 min 0,000 mm 0,0 UV-I 0 W/m 5,4 C 10,9 C 9,7 km/h (2 Bft) 98,33 %
18.11.2015 22:45 10,8 C 69 % 1018,1 hPa 0,0 l/m 4,8 km/h (1 Bft) S-SW 206 0 min 0,000 mm 0,0 UV-I 0 W/m 5,3 C 10,8 C 11,3 km/h (2 Bft) 99,19 %
18.11.2015 22:50 11,0 C 68 % 1018,1 hPa 0,0 l/m 8,3 km/h (2 Bft) SW 219 0 min 0,000 mm 0,0 UV-I 0 W/m 5,3 C 9,7 C 12,9 km/h (3 Bft) 100,00 %
18.11.2015 22:55 11,1 C 68 % 1018,1 hPa 0,0 l/m 6,5 km/h (2 Bft) SW 225 0 min 0,000 mm 0,0 UV-I 0 W/m 5,4 C 11,1 C 11,3 km/h (2 Bft) 99,15 %
18.11.2015 23:00 10,9 C 68 % 1018,1 hPa 0,0 l/m 5,3 km/h (1 Bft) W 269 0 min 0,000 mm 0,0 UV-I 0 W/m 5,2 C 10,9 C 12,9 km/h (3 Bft) 100,00 %
18.11.2015 23:05 10,8 C 68 % 1018,2 hPa 0,0 l/m 4,7 km/h (1 Bft) W-NW 288 0 min 0,025 mm 0,0 UV-I 0 W/m 5,1 C 10,8 C 11,3 km/h (2 Bft) 99,17 %
18.11.2015 23:10 10,7 C 69 % 1018,1 hPa 0,0 l/m 5,2 km/h (1 Bft) W-SW 251 0 min 0,000 mm 0,0 UV-I 0 W/m 5,2 C 10,7 C 12,9 km/h (3 Bft) 97,39 %
18.11.2015 23:15 10,8 C 69 % 1018,0 hPa 0,0 l/m 4,9 km/h (1 Bft) W-SW 251 0 min 0,000 mm 0,0 UV-I 0 W/m 5,3 C 10,8 C 9,7 km/h (2 Bft) 100,00 %
18.11.2015 23:20 10,7 C 69 % 1018,2 hPa 0,0 l/m 4,0 km/h (1 Bft) W-SW 248 0 min 0,000 mm 0,0 UV-I 0 W/m 5,2 C 10,7 C 11,3 km/h (2 Bft) 99,19 %
18.11.2015 23:25 10,7 C 69 % 1018,1 hPa 0,0 l/m 4,3 km/h (1 Bft) SW 221 0 min 0,000 mm 0,0 UV-I 0 W/m 5,2 C 10,7 C 9,7 km/h (2 Bft) 98,17 %
18.11.2015 23:30 10,6 C 69 % 1018,2 hPa 0,0 l/m 4,6 km/h (1 Bft) W-SW 249 0 min 0,000 mm 0,0 UV-I 0 W/m 5,2 C 10,6 C 11,3 km/h (2 Bft) 99,17 %
18.11.2015 23:35 10,6 C 70 % 1018,2 hPa 0,0 l/m 4,0 km/h (1 Bft) SW 234 0 min 0,000 mm 0,0 UV-I 0 W/m 5,4 C 10,6 C 9,7 km/h (2 Bft) 98,31 %
18.11.2015 23:40 10,5 C 70 % 1018,2 hPa 0,0 l/m 3,3 km/h (1 Bft) W 263 0 min 0,000 mm 0,0 UV-I 0 W/m 5,3 C 10,5 C 6,4 km/h (2 Bft) 98,35 %
18.11.2015 23:45 10,7 C 70 % 1018,3 hPa 0,0 l/m 4,5 km/h (1 Bft) W 261 0 min 0,000 mm 0,0 UV-I 0 W/m 5,5 C 10,7 C 9,7 km/h (2 Bft) 98,29 %
18.11.2015 23:50 10,9 C 68 % 1018,3 hPa 0,0 l/m 4,1 km/h (1 Bft) SW 223 0 min 0,000 mm 0,0 UV-I 0 W/m 5,2 C 10,9 C 11,3 km/h (2 Bft) 100,00 %
18.11.2015 23:55 10,8 C 69 % 1018,4 hPa 0,0 l/m 4,3 km/h (1 Bft) SW 231 0 min 0,000 mm 0,0 UV-I 0 W/m 5,3 C 10,8 C 8,0 km/h (2 Bft) 98,21 %
_ Min-Zeit 23:40 11:05 04:40 - 02:20 - - - - - - 23:05 22:50 02:20 10:05
Minimum _ 10,5 C 53 % 1012,4 hPa - 0,0 km/h (0 Bft) - - - - - - 5,1 C 9,7 C 1,6 km/h (1 Bft) 96,77 %
_ Max-Zeit 13:30 00:20 19:20 00:00 10:05 - - 08:25 12:00 11:20 10:35 06:30 14:40 11:00 00:00
Maximum _ 16,9 C 82 % 1018,5 hPa 0,0 l/m 22,1 km/h
W (4 Bft)
- - 5 min 0,305 mm 1,2 UV-I 380 W/m 9,6 C 16,1 C 49,9 km/h
W-NW (6 Bft)
100,00 %
Durchschnitt _ 14,1 C 65 % 1016,0 hPa #0,0 l/m 9,7 km/h (2 Bft) W - #7:20 h #2,159 mm 0,9 UV-I 217 W/m 7,5 C 12,4 C 19,2 km/h (3 Bft) 99,35 %